Weather History for Chevak, AK

Change the Weather History Date:

Friday, October 11, 2013

  Actual Average (PAHP) Record (PAHP)
Temperature  
Mean Temperature 42 °F -  
Max Temperature 45 °F 36 °F 53 °F (2007)
Min Temperature 39 °F 29 °F 26 °F (1996)
Degree Days  
Heating Degree Days 24    
Moisture  
Dew Point 40 °F    
Average Humidity 93    
Maximum Humidity 100    
Minimum Humidity 82    
Precipitation  
Precipitation 0.02 in - - ()
Sea Level Pressure  
Sea Level Pressure 29.45 in    
Wind  
Wind Speed 15 mph (South)    
Max Wind Speed 18 mph    
Max Gust Speed 20 mph    
Visibility 9 miles    
Events Rain    
Averages and records for this station are not official NWS values.
T = Trace of Precipitation, MM = Missing Value Source: NWS Daily Summary

Daily Weather History Graph

Daily Weather History Graph

Search for Another Location

Airport:

Trip Planner

Search our weather history database for the weather conditions in past years. The results will help you decide how hot, cold, wet, or windy it might be!

Date:

Astronomy

Oct. 11, 2013 Rise Set
Actual Time 9:36 AM AKDT 8:00 PM AKDT
Civil Twilight 8:52 AM AKDT 8:44 PM AKDT
Nautical Twilight 8:01 AM AKDT 9:34 PM AKDT
Astronomical Twilight 7:09 AM AKDT 10:26 PM AKDT
Moon 5:21 PM AKDT (10/11) No Moon Set
Length of Visible Light 11h 52m
Length of Day
10h 24m
Waxing Crescent, 49% of the Moon is Illuminated
Oct 11
Waxing Crescent
Oct 11
First Quarter
Oct 18
Full
Oct 26
Last Quarter
Nov 3
New

Hourly Weather History & Observations

Time (AKDT) Temp. Windchill Dew Point Humidity Pressure Visibility Wind Dir Wind Speed Gust Speed Precip Events Conditions
12:44 AM 42.8 °F 35.4 °F 42.8 °F 100% 29.34 in 10.0 mi South 15.0 mph - 0.01 in   Overcast
12:49 AM 42.8 °F 35.4 °F 42.8 °F 100% 29.35 in 10.0 mi SSW 15.0 mph - 0.01 in   Overcast
12:57 AM 43.0 °F 35.7 °F 41.0 °F 93% 29.36 in 10.0 mi SSW 15.0 mph - 0.01 in   Overcast
1:00 AM 42.8 °F 35.4 °F 41.0 °F 93% 29.35 in 10.0 mi SSW 15.0 mph - N/A   Overcast
1:06 AM 42.8 °F 35.8 °F 42.8 °F 100% 29.35 in 6.0 mi SSW 13.8 mph - N/A   Overcast
1:17 AM 42.8 °F 35.8 °F 42.8 °F 100% 29.35 in 2.5 mi South 13.8 mph - N/A   Overcast
1:37 AM 42.8 °F 34.8 °F 42.8 °F 100% 29.36 in 3.0 mi SSW 17.3 mph - 0.00 in Rain Light Rain
1:57 AM 43.0 °F 35.7 °F 42.1 °F 97% 29.37 in 6.0 mi SSW 15.0 mph - 0.00 in Rain Light Rain
2:07 AM 42.8 °F 34.8 °F 42.8 °F 100% 29.37 in 10.0 mi SSW 17.3 mph - 0.00 in   Overcast
2:57 AM 42.1 °F 33.6 °F 42.1 °F 100% 29.39 in 3.0 mi SSW 18.4 mph - 0.00 in   Overcast
3:13 AM 42.8 °F 34.8 °F 42.8 °F 100% 29.39 in 3.0 mi SSW 17.3 mph - N/A   Overcast
3:16 AM 42.8 °F 35.1 °F 42.8 °F 100% 29.39 in 2.5 mi SSW 16.1 mph - 0.00 in Rain Light Rain
3:25 AM 42.8 °F 34.5 °F 42.8 °F 100% 29.40 in 3.0 mi SSW 18.4 mph - 0.00 in Rain Light Rain
3:57 AM 42.1 °F 33.6 °F 42.1 °F 100% 29.42 in 10.0 mi SSW 18.4 mph - 0.00 in   Overcast
4:41 AM 42.8 °F 35.1 °F 41.0 °F 93% 29.42 in 9.0 mi SSW 16.1 mph - 0.00 in   Overcast
4:45 AM 42.8 °F 35.1 °F 41.0 °F 93% 29.42 in 10.0 mi SSW 16.1 mph - 0.00 in   Overcast
4:57 AM 42.1 °F 34.5 °F 41.0 °F 96% 29.43 in 9.0 mi SSW 15.0 mph - 0.00 in   Overcast
5:57 AM 42.1 °F 35.7 °F 39.9 °F 92% 29.45 in 10.0 mi South 11.5 mph - 0.00 in   Overcast
6:26 AM 42.8 °F 35.4 °F 39.2 °F 87% 29.45 in 8.0 mi SSW 15.0 mph - N/A   Overcast
6:57 AM 42.1 °F 36.1 °F 39.9 °F 92% 29.47 in 10.0 mi South 10.4 mph - N/A   Overcast
7:50 AM 41.0 °F 32.8 °F 39.2 °F 93% 29.47 in 10.0 mi South 16.1 mph 19.6 mph 0.00 in   Overcast
7:57 AM 41.0 °F 33.5 °F 39.0 °F 93% 29.48 in 10.0 mi SSW 13.8 mph - 0.00 in   Overcast
8:40 AM 41.0 °F 32.5 °F 39.2 °F 93% 29.49 in 10.0 mi South 17.3 mph - N/A   Overcast
8:51 AM 41.0 °F 32.8 °F 37.4 °F 87% 29.50 in 10.0 mi SSW 16.1 mph - 0.00 in Rain Light Rain
8:57 AM 41.0 °F 32.2 °F 39.0 °F 93% 29.51 in 10.0 mi SSW 18.4 mph - 0.00 in Rain Light Rain
9:05 AM 41.0 °F 33.5 °F 37.4 °F 87% 29.50 in 10.0 mi South 13.8 mph - 0.01 in Rain Light Rain
9:21 AM 41.0 °F 34.7 °F 37.4 °F 87% 29.50 in 10.0 mi South 10.4 mph - 0.01 in Rain Light Rain
9:57 AM 39.9 °F 34.5 °F 39.0 °F 97% 29.52 in 10.0 mi SSE 8.1 mph - 0.01 in   Mostly Cloudy
10:57 AM 41.0 °F 34.7 °F 39.9 °F 96% 29.55 in 10.0 mi South 10.4 mph - N/A   Overcast
11:57 AM 42.1 °F 36.1 °F 39.9 °F 92% 29.55 in 10.0 mi SSE 10.4 mph - N/A   Overcast
12:57 PM 41.0 °F 35.2 °F 39.0 °F 93% 29.56 in 10.0 mi SSE 9.2 mph - N/A   Mostly Cloudy
1:57 PM 43.0 °F 37.2 °F 39.0 °F 86% 29.56 in 10.0 mi SE 10.4 mph - N/A   Overcast
2:57 PM 43.0 °F 36.8 °F 39.0 °F 86% 29.55 in 10.0 mi SSE 11.5 mph - N/A   Overcast
3:57 PM 43.0 °F 37.2 °F 39.0 °F 86% 29.54 in 10.0 mi ESE 10.4 mph - N/A   Overcast
4:57 PM 44.1 °F 38.1 °F 39.9 °F 85% 29.53 in 10.0 mi ESE 11.5 mph - N/A   Overcast
5:57 PM 44.1 °F 38.1 °F 39.0 °F 82% 29.51 in 10.0 mi East 11.5 mph - N/A   Overcast
6:57 PM 43.0 °F 37.2 °F 39.9 °F 89% 29.50 in 10.0 mi East 10.4 mph - N/A   Partly Cloudy
7:57 PM 41.0 °F 34.7 °F 37.9 °F 89% 29.48 in 10.0 mi East 10.4 mph - N/A   Overcast
8:57 PM 41.0 °F 33.5 °F 39.0 °F 93% 29.46 in 10.0 mi NE 13.8 mph - N/A   Mostly Cloudy
9:57 PM 39.9 °F 31.8 °F 37.9 °F 93% 29.44 in 10.0 mi NE 15.0 mph - N/A   Overcast
10:57 PM 41.0 °F 32.8 °F 39.0 °F 93% 29.41 in 10.0 mi NE 16.1 mph - N/A   Overcast
11:57 PM 41.0 °F 32.2 °F 39.0 °F 93% 29.38 in 10.0 mi NE 18.4 mph - 0.00 in Rain Light Rain